This is the latest recevied weather packets stored in our database for station/object KC5AV. If no packets are shown the sender has not sent any weather packets the latest 1 day(s).
| Time | Temp. | Humidity | Pressure | Rain* | Wind** | Luminosity | Snow |
|---|---|---|---|---|---|---|---|
| 1778076673 | 18.33° C | 85% | 1012.6 hPa | 0 mm | - | 100 W/m² | - |
| 1778076370 | 18.33° C | 86% | 1012.8 hPa | 0 mm | - | 106 W/m² | - |
| 1778075764 | 18.33° C | 85% | 1012.5 hPa | 0 mm | - | 131 W/m² | - |
| 1778075157 | 18.33° C | 85% | 1012.5 hPa | 0 mm | - | 99 W/m² | - |
| 1778074550 | 18.89° C | 86% | 1012.4 hPa | 0 mm | - | 67 W/m² | - |
| 1778072732 | 19.44° C | 88% | 1011.7 hPa | 0 mm | - | 46 W/m² | - |
| 1778071825 | 20° C | 88% | 1011.7 hPa | 0 mm | - | 27 W/m² | - |
| 1778070918 | 20.56° C | 86% | 1011.3 hPa | 0 mm | - | 19 W/m² | - |
| 1778070616 | 21.11° C | 84% | 1011.4 hPa | 0 mm | - | 9 W/m² | - |
| 1778069404 | 23.89° C | 90% | 1011.1 hPa | 0 mm | - | 8 W/m² | - |
| 1778068799 | 23.89° C | 90% | 1010.9 hPa | 0 mm | - | 9 W/m² | - |
| 1778068496 | 23.89° C | 90% | 1010.7 hPa | 0 mm | - | 9 W/m² | - |
| 1778067892 | 23.89° C | 90% | 1010.5 hPa | 0 mm | - | 4 W/m² | - |
| 1778067288 | 23.89° C | 90% | 1010.5 hPa | 0 mm | - | 1 W/m² | - |
| 1778066984 | 23.89° C | 90% | 1010.4 hPa | 0 mm | - | 1 W/m² | - |
| 1778066682 | 23.89° C | 90% | 1010.3 hPa | 0 mm | - | 0 W/m² | - |
| 1778066379 | 23.89° C | 90% | 1010.3 hPa | 0 mm | - | 0 W/m² | - |
| 1778066077 | 23.89° C | 90% | 1010.2 hPa | 0 mm | - | 0 W/m² | - |
| 1778065472 | 23.89° C | 90% | 1010.1 hPa | 0 mm | - | 0 W/m² | - |
| 1778064864 | 23.89° C | 89% | 1010 hPa | 0 mm | - | 0 W/m² | - |
| 1778063050 | 23.89° C | 90% | 1009.6 hPa | 0 mm | - | 0 W/m² | - |
| 1778062140 | 23.89° C | 89% | 1009.6 hPa | 0 mm | - | 0 W/m² | - |
| 1778061536 | 23.89° C | 89% | 1009.5 hPa | 0 mm | - | 0 W/m² | - |
| 1778061234 | 23.89° C | 89% | 1009.5 hPa | 0 mm | - | 0 W/m² | - |
| 1778060024 | 23.89° C | 89% | 1009.3 hPa | 0 mm | - | 0 W/m² | - |
* Rain latest hour (hover to see other rain measurements)
** Current wind speed in m/s (hover to see current wind gust speed)